Weather History for Kaiser, MO

Change the Weather History Date:

Monday, March 4, 2013

  Actual Average Record
Temperature  
Mean Temperature 47 °F -  
Max Temperature 57 °F 48 °F 71 °F (2011)
Min Temperature 37 °F 28 °F 1 °F (2002)
Degree Days  
Heating Degree Days 18    
Moisture  
Dew Point 30 °F    
Average Humidity 55    
Maximum Humidity 66    
Minimum Humidity 41    
Precipitation  
Precipitation 0.00 in - - ()
Sea Level Pressure  
Sea Level Pressure 29.78 in    
Wind  
Wind Speed 8 mph (ESE)    
Max Wind Speed 12 mph    
Max Gust Speed 21 mph    
Visibility 10 miles    
Events      
Averages and records for this station are not official NWS values.
T = Trace of Precipitation, MM = Missing Value Source: NWS Daily Summary

Daily Weather History Graph

Daily Weather History Graph

Search for Another Location

Airport:

Trip Planner

Search our weather history database for the weather conditions in past years. The results will help you decide how hot, cold, wet, or windy it might be!

Date:

Astronomy

Mar. 04, 2013 Rise Set
Actual Time 6:37 AM CST 6:06 PM CST
Civil Twilight 6:10 AM CST 6:33 PM CST
Nautical Twilight 5:40 AM CST 7:03 PM CST
Astronomical Twilight 5:09 AM CST 7:34 PM CST
Moon 12:43 AM CST (3/4) 10:52 AM CST (3/4)
Length of Visible Light 12h 22m
Length of Day
11h 29m
Waning Gibbous, 52% of the Moon is Illuminated
Mar 4
Waning Gibbous
Mar 4
Last Quarter
Mar 11
New
Mar 19
First Quarter
Mar 27
Full

Hourly Weather History & Observations

Time (CST) Temp. Windchill Dew Point Humidity Pressure Visibility Wind Dir Wind Speed Gust Speed Precip Events Conditions
12:15 AM 37.4 °F 30.8 °F 23.0 °F 56% 29.91 in 10.0 mi SE 9.2 mph - N/A   Partly Cloudy
12:35 AM 37.4 °F 32.1 °F 23.0 °F 56% 29.91 in 10.0 mi SE 6.9 mph - N/A   Clear
12:55 AM 37.4 °F 30.8 °F 23.0 °F 56% 29.89 in 10.0 mi SE 9.2 mph - N/A   Clear
1:15 AM 37.4 °F 29.8 °F 24.8 °F 60% 29.89 in 10.0 mi SSE 11.5 mph 17.3 mph N/A   Clear
1:35 AM 37.4 °F 30.8 °F 24.8 °F 60% 29.87 in 10.0 mi SE 9.2 mph - N/A   Clear
1:55 AM 37.4 °F 31.4 °F 24.8 °F 60% 29.86 in 10.0 mi SSE 8.1 mph - N/A   Clear
2:15 AM 37.4 °F 30.8 °F 24.8 °F 60% 29.85 in 10.0 mi SE 9.2 mph - N/A   Clear
2:35 AM 37.4 °F 31.4 °F 24.8 °F 60% 29.83 in 10.0 mi SE 8.1 mph - N/A   Clear
2:55 AM 37.4 °F 31.4 °F 24.8 °F 60% 29.83 in 10.0 mi SE 8.1 mph - N/A   Clear
3:15 AM 37.4 °F 31.4 °F 24.8 °F 60% 29.82 in 10.0 mi SE 8.1 mph - N/A   Clear
3:35 AM 37.4 °F 30.8 °F 24.8 °F 60% 29.80 in 10.0 mi ESE 9.2 mph - N/A   Clear
3:55 AM 37.4 °F 29.8 °F 24.8 °F 60% 29.79 in 10.0 mi ESE 11.5 mph 16.1 mph N/A   Clear
4:15 AM 37.4 °F 30.3 °F 24.8 °F 60% 29.79 in 10.0 mi SE 10.4 mph 16.1 mph N/A   Clear
4:35 AM 37.4 °F 31.4 °F 24.8 °F 60% 29.79 in 10.0 mi SE 8.1 mph - N/A   Clear
4:55 AM 37.4 °F 32.1 °F 24.8 °F 60% 29.79 in 10.0 mi ESE 6.9 mph - N/A   Clear
5:15 AM 37.4 °F 31.4 °F 24.8 °F 60% 29.80 in 10.0 mi ESE 8.1 mph - N/A   Clear
5:35 AM 37.4 °F 32.1 °F 24.8 °F 60% 29.80 in 10.0 mi ESE 6.9 mph - N/A   Clear
6:15 AM 37.4 °F 31.4 °F 24.8 °F 60% 29.79 in 10.0 mi ESE 8.1 mph - N/A   Clear
6:35 AM 37.4 °F 32.1 °F 24.8 °F 60% 29.80 in 10.0 mi ESE 6.9 mph - N/A   Clear
6:55 AM 37.4 °F 31.4 °F 24.8 °F 60% 29.79 in 10.0 mi ESE 8.1 mph - N/A   Clear
7:15 AM 37.4 °F 31.4 °F 24.8 °F 60% 29.79 in 10.0 mi ESE 8.1 mph - N/A   Clear
7:35 AM 37.4 °F 29.8 °F 24.8 °F 60% 29.79 in 10.0 mi SE 11.5 mph 17.3 mph N/A   Clear
7:55 AM 37.4 °F 30.8 °F 26.6 °F 65% 29.79 in 10.0 mi SE 9.2 mph - N/A   Clear
8:15 AM 39.2 °F 33.6 °F 24.8 °F 56% 29.79 in 10.0 mi SE 8.1 mph - N/A   Clear
8:35 AM 39.2 °F 33.6 °F 26.6 °F 61% 29.79 in 10.0 mi SE 8.1 mph 16.1 mph N/A   Clear
8:55 AM 39.2 °F 32.5 °F 26.6 °F 61% 29.78 in 10.0 mi SSE 10.4 mph 16.1 mph N/A   Clear
9:15 AM 41.0 °F 35.8 °F 26.6 °F 57% 29.77 in 10.0 mi SSE 8.1 mph 20.7 mph N/A   Clear
9:35 AM 42.8 °F 37.0 °F 26.6 °F 53% 29.77 in 10.0 mi SSE 10.4 mph - N/A   Clear
9:55 AM 42.8 °F 37.0 °F 28.4 °F 57% 29.77 in 10.0 mi SSE 10.4 mph 19.6 mph N/A   Clear
10:15 AM 44.6 °F 40.7 °F 28.4 °F 53% 29.76 in 10.0 mi SSE 6.9 mph - N/A   Clear
10:35 AM 46.4 °F 41.9 °F 28.4 °F 50% 29.76 in 10.0 mi South 9.2 mph - N/A   Clear
10:55 AM 46.4 °F 42.4 °F 28.4 °F 50% 29.75 in 10.0 mi South 8.1 mph 16.1 mph N/A   Clear
11:15 AM 48.2 °F - 28.4 °F 46% 29.75 in 10.0 mi South 10.4 mph - N/A   Clear
11:35 AM 48.2 °F - 30.2 °F 50% 29.75 in 10.0 mi SSE 10.4 mph - N/A   Clear
11:55 AM 48.2 °F - 30.2 °F 50% 29.74 in 10.0 mi South 6.9 mph - N/A   Clear
12:15 PM 50.0 °F - 30.2 °F 47% 29.73 in 10.0 mi SE 8.1 mph - N/A   Clear
12:55 PM 51.8 °F - 32.0 °F 47% 29.71 in 10.0 mi SSE 5.8 mph - N/A   Clear
1:15 PM 53.6 °F - 32.0 °F 44% 29.70 in 10.0 mi South 9.2 mph - N/A   Clear
1:35 PM 53.6 °F - 33.8 °F 47% 29.69 in 10.0 mi ESE 8.1 mph - N/A   Clear
1:55 PM 53.6 °F - 33.8 °F 47% 29.68 in 10.0 mi Calm Calm - N/A   Clear
2:15 PM 55.4 °F - 33.8 °F 44% 29.68 in 10.0 mi East 5.8 mph - N/A   Clear
2:35 PM 53.6 °F - 33.8 °F 47% 29.68 in 10.0 mi East 5.8 mph - N/A   Clear
2:55 PM 57.2 °F - 33.8 °F 41% 29.68 in 10.0 mi East 5.8 mph - N/A   Clear
3:15 PM 53.6 °F - 35.6 °F 51% 29.69 in 10.0 mi East 8.1 mph - N/A   Clear
3:35 PM 57.2 °F - 35.6 °F 44% 29.69 in 10.0 mi East 5.8 mph - N/A   Clear
3:55 PM 57.2 °F - 35.6 °F 44% 29.69 in 10.0 mi NE 6.9 mph - N/A   Clear
4:15 PM 55.4 °F - 35.6 °F 47% 29.70 in 10.0 mi ENE 9.2 mph - N/A   Scattered Clouds
4:35 PM 53.6 °F - 35.6 °F 51% 29.71 in 10.0 mi ENE 6.9 mph - N/A   Mostly Cloudy
4:55 PM 53.6 °F - 35.6 °F 51% 29.71 in 10.0 mi ENE 8.1 mph - N/A   Overcast
5:15 PM 53.6 °F - 35.6 °F 51% 29.72 in 10.0 mi ENE 5.8 mph - N/A   Overcast
5:35 PM 53.6 °F - 33.8 °F 47% 29.72 in 10.0 mi ENE 5.8 mph - N/A   Overcast
5:55 PM 53.6 °F - 35.6 °F 51% 29.73 in 10.0 mi NE 5.8 mph - N/A   Overcast
6:15 PM 53.6 °F - 33.8 °F 47% 29.74 in 10.0 mi NE 4.6 mph - N/A   Overcast
6:35 PM 51.8 °F - 35.6 °F 54% 29.74 in 10.0 mi NE 5.8 mph - N/A   Overcast
6:55 PM 50.0 °F - 33.8 °F 54% 29.75 in 10.0 mi ENE 6.9 mph - N/A   Overcast
7:15 PM 50.0 °F - 35.6 °F 58% 29.75 in 10.0 mi NE 4.6 mph - N/A   Scattered Clouds
7:35 PM 51.8 °F - 33.8 °F 50% 29.75 in 10.0 mi Calm Calm - N/A   Clear
7:55 PM 48.2 °F - 35.6 °F 62% 29.77 in 10.0 mi Calm Calm - N/A   Clear
8:35 PM 48.2 °F - 35.6 °F 62% 29.78 in 10.0 mi Calm Calm - N/A   Clear
8:55 PM 46.4 °F - 33.8 °F 62% 29.79 in 10.0 mi Calm Calm - N/A   Clear
9:15 PM 44.6 °F 43.1 °F 33.8 °F 66% 29.79 in 10.0 mi NNE 3.5 mph - N/A   Clear
9:35 PM 44.6 °F 42.2 °F 33.8 °F 66% 29.80 in 10.0 mi North 4.6 mph - N/A   Scattered Clouds
9:55 PM 44.6 °F 43.1 °F 33.8 °F 66% 29.80 in 10.0 mi NNE 3.5 mph - N/A   Partly Cloudy
10:15 PM 44.6 °F 43.1 °F 32.0 °F 61% 29.81 in 10.0 mi NNE 3.5 mph - N/A   Mostly Cloudy
10:35 PM 44.6 °F 41.4 °F 32.0 °F 61% 29.81 in 10.0 mi North 5.8 mph - N/A   Overcast
10:55 PM 44.6 °F - 30.2 °F 57% 29.82 in 10.0 mi Calm Calm - N/A   Overcast
11:15 PM 42.8 °F 40.1 °F 30.2 °F 61% 29.83 in 10.0 mi NW 4.6 mph - N/A   Overcast
11:35 PM 42.8 °F 39.3 °F 30.2 °F 61% 29.84 in 10.0 mi NNW 5.8 mph - N/A   Overcast
11:55 PM 41.0 °F 35.2 °F 28.4 °F 61% 29.85 in 10.0 mi NNW 9.2 mph - N/A   Overcast